Вернуться в каталог

STARLINK-37177

АктивенСвязьSSO
NORAD 68611·PAYLOAD·🇺🇸 United States

Запущен Apr 5, 2026 с Vandenberg Space Force Base

Loading…

Ближайшие Пролёты (ближайшие 24 часа)

TLE

СвежийSource: CelesTrak SupGP

Эпоха: Sep 15, 2026, 03:48 UTC

1 68611C 26073K   26258.15881944 -.00045801  00000+0 -14213-2 0  2583
2 68611  97.2855  96.2542 0001733  94.3038 212.9753 15.33473412    12

Отслеживайте STARLINK-37177 в реальном времени с AllMySat

Download on the App Store